This demonstration page uses our WeatherBlox Daily Observations layout. Learn more.

Left ArrowRight Arrow

Hourly Observations for January 19, 2017

Temp ( °F °C ) Dew Point ( °F °C ) Humidity (%) Winds ( mph kmh ) Pressure ( in mb ) Visibility ( mi km ) Precip ( " mm )
12:58 am 00:58 Clear 35 1.9 35 1.9 100 100 SSE 6 9 29.90 1013 10 16 0.00 0.00
1:58 am 01:58 Clear 34 1.2 34 1.2 100 100 ENE 6 9 29.88 1012 10 16 0.00 0.00
2:58 am 02:58 Mostly Clear 35 1.8 35 1.8 100 100 ESE 7 11 29.87 1011 9 14 0.00 0.00
3:58 am 03:58 Mostly Clear 35 1.7 35 1.7 100 100 ESE 6 9 29.85 1011 8 13 0.00 0.00
4:58 am 04:58 Partly Cloudy 35 1.5 35 1.5 100 100 ESE 7 11 29.83 1010 7 11 0.00 0.00
5:58 am 05:58 Clear 31 -0.7 31 -0.7 100 100 E 5 7 29.83 1010 7 11 0.00 0.00
6:58 am 06:58 Mostly Cloudy 31 -0.5 31 -0.5 100 100 E 3 6 29.83 1010 7 11 0.00 0.00
7:58 am 07:58 Mostly Cloudy with Mist and Fog 34 1.3 34 1.3 100 100 E 7 11 29.81 1010 5 8 0.00 0.00
8:40 am 08:40 Mostly Cloudy with Mist and Fog 36 2 36 2 100 100 ESE 3 6 29.83 1010 5 8 0.00 0.00
8:43 am 08:43 Cloudy with Mist and Fog 36 2 36 2 100 100 ESE 3 6 29.83 1010 5 8 0.00 0.00
8:53 am 08:53 Cloudy with Mist and Fog 36 2 36 2 100 100 ESE 5 7 29.83 1010 5 8 0.00 0.00
8:58 am 08:58 Cloudy with Mist and Fog 36 2.2 36 2.2 100 100 E 3 6 29.83 1010 5 8 0.00 0.00
9:04 am 09:04 Cloudy with Mist and Fog 36 2 36 2 100 100 E 3 6 29.80 1009 5 8 0.00 0.00
9:13 am 09:13 Cloudy with Mist and Fog 36 2 36 2 100 100 Calm 29.80 1009 5 8 0.00 0.00
9:31 am 09:31 Cloudy with Mist and Fog 37 3 37 3 100 100 Calm 29.80 1009 6 10 0.00 0.00
9:58 am 09:58 Cloudy with Mist and Fog 38 3.1 38 3.1 100 100 ESE 3 6 29.83 1010 6 10 0.00 0.00
10:16 am 10:16 Cloudy with Mist and Fog 39 4 39 4 100 100 ESE 3 6 29.83 1010 5 8 0.00 0.00
10:34 am 10:34 Mostly Cloudy with Mist and Fog 39 4 39 4 100 100 ESE 7 11 29.83 1010 4 6 0.00 0.00
10:46 am 10:46 Partly Cloudy with Mist and Fog 39 4 39 4 100 100 ESE 6 9 29.83 1010 3 5 0.00 0.00
10:52 am 10:52 Mostly Cloudy with Mist and Fog 39 4 39 4 100 100 ESE 5 7 29.83 1010 4 6 0.00 0.00
10:58 am 10:58 Mostly Cloudy with Mist and Fog 39 3.8 39 3.8 100 100 ESE 3 6 29.83 1010 4 6 0.00 0.00
11:22 am 11:22 Partly Cloudy with Mist and Fog 39 4 39 4 100 100 ESE 7 11 29.80 1009 4 6 0.00 0.00
11:58 am 11:58 Mostly Cloudy with Mist and Fog 41 5 41 5 100 100 ESE 8 13 29.77 1008 6 10 0.00 0.00
12:58 pm 12:58 Cloudy 43 6 43 6 100 100 SE 5 7 29.74 1007 7 11 0.00 0.00
12:59 pm 12:59 Cloudy 43 6.1 43 6.1 100 100 SE 7 11 29.73 1007 8 13 0.00 0.00
1:09 pm 13:09 Cloudy 45 7 45 7 100 100 ESE 7 11 29.71 1006 8 13 0.00 0.00
1:21 pm 13:21 Cloudy 45 7 45 7 100 100 ESE 8 13 29.71 1006 10 16 0.00 0.00
1:39 pm 13:39 Cloudy 45 7 45 7 100 100 ESE 7 11 29.71 1006 10 16 0.00 0.00
1:51 pm 13:51 Cloudy 45 7 45 7 100 100 SSE 7 11 29.71 1006 9 14 0.00 0.00
1:58 pm 13:58 Cloudy 44 6.5 44 6.5 100 100 SSE 7 11 29.70 1006 8 13 0.00 0.00
2:04 pm 14:04 Cloudy 43 6 43 6 100 100 S 5 7 29.71 1006 7 11 0.00 0.00
2:58 pm 14:58 Cloudy 43 6.2 43 6.2 100 100 SE 3 6 29.70 1006 7 11 0.00 0.00
3:31 pm 15:31 Cloudy with Mist and Fog 43 6 43 6 100 100 E 6 9 29.71 1006 3 5 0.00 0.00
3:58 pm 15:58 Cloudy with Mist and Fog 43 5.9 43 5.9 100 100 E 5 7 29.69 1005 3 5 0.00 0.00
4:37 pm 16:37 Mostly Cloudy with Mist and Fog 43 6 43 6 100 100 Calm 29.68 1005 2 3 0.00 0.00
4:55 pm 16:55 Cloudy with Mist and Fog 43 6 43 6 100 100 Calm 29.68 1005 2 2 0.00 0.00
4:58 pm 16:58 Cloudy with Mist and Fog 42 5.6 42 5.6 100 100 Calm 29.68 1005 2 2 0.00 0.00
5:27 pm 17:27 Cloudy with Fog 41 5 41 5 100 100 NE 3 6 29.71 1006 1 1 0.00 0.00
5:58 pm 17:58 Cloudy with Drizzle 41 5 41 5 100 100 Calm 29.69 1006 3 5 0.00 0.00
6:43 pm 18:43 Mostly Cloudy with Drizzle 39 4 39 4 100 100 Calm 29.71 1006 3 5 0.00 0.00
6:58 pm 18:58 Mostly Cloudy with Drizzle 40 4.3 40 4.3 100 100 Calm 29.70 1006 3 5 0.00 0.00
7:33 pm 19:33 Mostly Cloudy with Drizzle 39 4 39 4 100 100 Calm 29.71 1006 1 1 0.00 0.00
7:58 pm 19:58 Mostly Cloudy with Drizzle 40 4.6 40 4.6 100 100 Calm 29.69 1006 1 1 0.00 0.00
8:58 pm 20:58 Mostly Cloudy with Drizzle 40 4.3 40 4.3 100 100 Calm 29.69 1006 1 1 0.00 0.00
9:15 pm 21:15 Clear with Drizzle 39 4 39 4 100 100 W 3 6 29.71 1006 3 5 0.00 0.00
9:39 pm 21:39 Mostly Cloudy with Fog 39 4 39 4 100 100 ENE 3 6 29.71 1006 1 1 0.00 0.00
9:58 pm 21:58 Mostly Cloudy with Fog 39 3.8 39 3.8 100 100 E 3 6 29.67 1005 1 1 0.01 0.25
10:30 pm 22:30 Mostly Cloudy with Fog 39 4 39 4 100 100 E 3 6 29.68 1005 0 0 0.00 0.00
10:38 pm 22:38 Mostly Cloudy with Drizzle 39 4 39 4 100 100 Calm 29.68 1005 0 0 0.00 0.00
10:58 pm 22:58 Mostly Cloudy with Drizzle 38 3.3 38 3.3 100 100 Calm 29.66 1004 0 0 0.00 0.00
11:58 pm 23:58 Mostly Cloudy with Fog 39 3.8 35 1.9 88 88 ENE 5 7 29.63 1003 1 1 0.00 0.00

Powered by AerisWeather